Location: Norton
(51.3000°N, 0.8167°E)
Time: 17:08:19
(UTC+00:00)

USA 305 - Pass Details

Date: 03 March 2021
Orbit: 567 x 574 km, 54.0° (Epoch: 13 April)

Event Time Altitude Azimuth Distance (km) Brightness Sun altitude
Rises 18:03:29 0° 257° (WSW) 2,778 8.9 -4.3°
Reaches altitude 10° 18:05:45 10° 259° (W) 1,880 7.4 -4.7°
Maximum altitude 18:10:02 74° 344° (NNW) 600 3.1 -5.3°
Drops below altitude 10° 18:14:18 10° 71° (ENE) 1,879 4.9 -6.0°
Enters shadow 18:14:59 - 71° (ENE) 2,145 5.2 -6.1°
